Time,TemperatureF,DewpointF,PressureIn,WindDirection,WindDirectionDegrees,WindSpeedMPH,WindSpeedGustMPH,Humidity,HourlyPrecipIn,Conditions,Clouds,dailyrainin,SoftwareType,DateUTC
2013-02-07 00:02:00,65.0,60.0,30.09,ESE,107,5.0,7.0,85,0.48,,,-99.99,,2013-02-07 05:02:00,
2013-02-07 00:12:00,65.0,60.0,30.09,ESE,107,5.0,7.0,85,0.48,,,-99.99,,2013-02-07 05:12:00,
2013-02-07 00:21:00,65.0,61.0,30.08,ESE,105,5.0,7.0,88,0.48,,,-99.99,,2013-02-07 05:21:00,
2013-02-07 00:32:00,65.0,62.0,30.08,ESE,115,5.0,8.0,91,0.48,,,-99.99,,2013-02-07 05:32:00,
2013-02-07 00:42:00,65.0,62.0,30.08,ESE,115,5.0,8.0,91,0.48,,,-99.99,,2013-02-07 05:42:00,
2013-02-07 00:52:00,64.0,62.0,30.07,ESE,103,5.0,7.0,92,0.48,,,-99.99,,2013-02-07 05:52:00,
2013-02-07 01:02:00,64.0,62.0,30.08,ESE,108,5.0,6.0,94,0.48,,,-99.99,,2013-02-07 06:02:00,
2013-02-07 01:11:00,64.0,62.0,30.08,ESE,108,5.0,6.0,94,0.48,,,-99.99,,2013-02-07 06:11:00,
2013-02-07 01:22:00,64.0,63.0,30.08,ESE,107,6.0,8.0,96,0.48,,,-99.99,,2013-02-07 06:22:00,
2013-02-07 01:32:00,64.0,63.0,30.08,ESE,108,5.0,7.0,96,0.48,,,-99.99,,2013-02-07 06:32:00,
2013-02-07 01:43:00,64.0,63.0,30.08,ESE,108,5.0,7.0,96,0.48,,,-99.99,,2013-02-07 06:43:00,
2013-02-07 01:52:00,64.0,63.0,30.08,ESE,113,6.0,8.0,96,0.48,,,-99.99,,2013-02-07 06:52:00,
2013-02-07 02:01:00,64.0,63.0,30.07,ESE,108,6.0,9.0,97,0.48,,,-99.99,,2013-02-07 07:01:00,
2013-02-07 02:11:00,64.0,63.0,30.07,ESE,122,6.0,10.0,97,0.48,,,-99.99,,2013-02-07 07:11:00,
2013-02-07 02:22:00,64.0,63.0,30.07,ESE,122,6.0,10.0,97,0.48,,,-99.99,,2013-02-07 07:22:00,
2013-02-07 02:32:00,64.0,63.0,30.07,ESE,114,6.0,7.0,98,0.48,,,-99.99,,2013-02-07 07:32:00,
2013-02-07 02:42:00,64.0,63.0,30.07,ESE,114,6.0,7.0,98,0.48,,,-99.99,,2013-02-07 07:42:00,
2013-02-07 02:52:00,64.0,63.0,30.06,ESE,117,7.0,10.0,98,0.48,,,-99.99,,2013-02-07 07:52:00,
2013-02-07 03:01:00,64.0,63.0,30.06,ESE,120,7.0,9.0,98,0.48,,,-99.99,,2013-02-07 08:01:00,
2013-02-07 03:11:00,64.0,63.0,30.06,ESE,120,7.0,9.0,98,0.48,,,-99.99,,2013-02-07 08:11:00,
2013-02-07 03:22:00,64.0,63.0,30.05,SE,128,6.0,9.0,97,0.48,,,-99.99,,2013-02-07 08:22:00,
2013-02-07 03:32:00,64.0,63.0,30.05,ESE,113,6.0,9.0,95,0.48,,,-99.99,,2013-02-07 08:32:00,
2013-02-07 03:42:00,64.0,63.0,30.05,ESE,113,6.0,9.0,95,0.48,,,-99.99,,2013-02-07 08:42:00,
2013-02-07 03:52:00,64.0,63.0,30.05,ESE,113,6.0,9.0,95,0.48,,,-99.99,,2013-02-07 08:52:00,
2013-02-07 04:02:00,64.0,62.0,30.04,ESE,121,6.0,9.0,93,0.48,,,-99.99,,2013-02-07 09:02:00,
2013-02-07 04:11:00,64.0,61.0,30.04,East,101,7.0,10.0,90,0.48,,,-99.99,,2013-02-07 09:11:00,
2013-02-07 04:21:00,64.0,61.0,30.04,East,101,7.0,10.0,90,0.48,,,-99.99,,2013-02-07 09:21:00,
2013-02-07 04:32:00,64.0,61.0,30.04,ESE,113,6.0,9.0,89,0.48,,,-99.99,,2013-02-07 09:32:00,
2013-02-07 04:42:00,64.0,61.0,30.04,ESE,113,6.0,9.0,89,0.48,,,-99.99,,2013-02-07 09:42:00,
2013-02-07 04:52:00,64.0,61.0,30.04,ESE,111,6.0,9.0,90,0.48,,,-99.99,,2013-02-07 09:52:00,
2013-02-07 05:02:00,63.0,60.0,30.05,ESE,117,6.0,8.0,89,0.48,,,-99.99,,2013-02-07 10:02:00,
2013-02-07 05:11:00,63.0,60.0,30.05,ESE,117,6.0,8.0,89,0.48,,,-99.99,,2013-02-07 10:11:00,
2013-02-07 05:22:00,63.0,60.0,30.05,ESE,117,6.0,8.0,91,0.48,,,-99.99,,2013-02-07 10:22:00,
2013-02-07 05:32:00,63.0,60.0,30.05,ESE,113,6.0,9.0,89,0.48,,,-99.99,,2013-02-07 10:32:00,
2013-02-07 05:42:00,63.0,60.0,30.05,ESE,113,6.0,9.0,89,0.48,,,-99.99,,2013-02-07 10:42:00,
2013-02-07 05:52:00,64.0,60.0,30.06,SE,138,5.0,8.0,88,0.48,,,-99.99,,2013-02-07 10:52:00,
2013-02-07 06:01:00,64.0,59.0,30.06,SE,127,6.0,8.0,85,0.48,,,-99.99,,2013-02-07 11:01:00,
2013-02-07 06:11:00,64.0,59.0,30.06,SE,127,6.0,8.0,85,0.48,,,-99.99,,2013-02-07 11:11:00,
2013-02-07 06:23:00,64.0,59.0,30.06,SE,124,4.0,7.0,84,0.48,,,-99.99,,2013-02-07 11:23:00,
2013-02-07 06:32:00,64.0,59.0,30.06,ESE,113,6.0,9.0,83,0.48,,,-99.99,,2013-02-07 11:32:00,
2013-02-07 06:44:00,64.0,59.0,30.06,ESE,113,6.0,9.0,83,0.48,,,-99.99,,2013-02-07 11:44:00,
2013-02-07 06:53:00,65.0,60.0,30.07,ESE,113,5.0,8.0,83,0.48,,,-99.99,,2013-02-07 11:53:00,
2013-02-07 07:02:00,65.0,60.0,30.06,SE,125,4.0,7.0,83,0.48,,,-99.99,,2013-02-07 12:02:00,
2013-02-07 07:11:00,65.0,60.0,30.06,SE,125,4.0,7.0,83,0.48,,,-99.99,,2013-02-07 12:11:00,
2013-02-07 07:22:00,64.0,59.0,30.06,ESE,120,5.0,7.0,84,0.48,,,-99.99,,2013-02-07 12:22:00,
2013-02-07 07:33:00,64.0,59.0,30.06,SE,128,5.0,7.0,85,0.48,,,-99.99,,2013-02-07 12:33:00,
2013-02-07 07:42:00,64.0,59.0,30.06,SE,128,5.0,7.0,85,0.48,,,-99.99,,2013-02-07 12:42:00,
2013-02-07 07:53:00,64.0,60.0,30.06,ESE,111,5.0,8.0,86,0.48,,,-99.99,,2013-02-07 12:53:00,
2013-02-07 08:03:00,64.0,60.0,30.07,ESE,108,5.0,6.0,87,0.48,,,-99.99,,2013-02-07 13:03:00,
2013-02-07 08:12:00,64.0,60.0,30.07,ESE,108,5.0,6.0,87,0.48,,,-99.99,,2013-02-07 13:12:00,
2013-02-07 08:22:00,65.0,61.0,30.07,ESE,117,5.0,7.0,88,0.48,,,-99.99,,2013-02-07 13:22:00,
2013-02-07 08:32:00,65.0,61.0,30.06,SE,138,5.0,6.0,87,0.48,,,-99.99,,2013-02-07 13:32:00,
2013-02-07 08:42:00,65.0,61.0,30.06,SE,138,5.0,6.0,87,0.48,,,-99.99,,2013-02-07 13:42:00,
2013-02-07 08:52:00,66.0,61.0,30.06,SE,142,5.0,10.0,84,0.48,,,-99.99,,2013-02-07 13:52:00,
2013-02-07 09:01:00,67.0,59.0,30.07,SE,128,7.0,11.0,76,0.48,,,-99.99,,2013-02-07 14:01:00,
2013-02-07 09:11:00,67.0,59.0,30.07,SE,128,7.0,11.0,76,0.48,,,-99.99,,2013-02-07 14:11:00,
2013-02-07 09:22:00,68.0,59.0,30.07,SE,136,8.0,13.0,74,0.48,,,-99.99,,2013-02-07 14:22:00,
2013-02-07 09:32:00,69.0,60.0,30.07,ESE,108,6.0,10.0,74,0.48,,,-99.99,,2013-02-07 14:32:00,
2013-02-07 09:42:00,69.0,60.0,30.07,ESE,108,6.0,10.0,74,0.48,,,-99.99,,2013-02-07 14:42:00,
2013-02-07 09:52:00,69.0,59.0,30.06,SE,145,8.0,12.0,71,0.48,,,-99.99,,2013-02-07 14:52:00,
2013-02-07 10:02:00,70.0,60.0,30.05,SE,124,10.0,16.0,71,0.48,,,-99.99,,2013-02-07 15:02:00,
2013-02-07 10:11:00,70.0,60.0,30.05,SE,124,10.0,16.0,71,0.48,,,-99.99,,2013-02-07 15:11:00,
2013-02-07 10:22:00,71.0,61.0,30.06,SE,142,8.0,13.0,70,0.48,,,-99.99,,2013-02-07 15:22:00,
2013-02-07 10:32:00,72.0,61.0,30.06,SSE,155,9.0,14.0,69,0.48,,,-99.99,,2013-02-07 15:32:00,
2013-02-07 10:42:00,72.0,61.0,30.06,SSE,155,9.0,14.0,69,0.48,,,-99.99,,2013-02-07 15:42:00,
2013-02-07 10:52:00,72.0,61.0,30.06,SE,145,9.0,14.0,69,0.48,,,-99.99,,2013-02-07 15:52:00,
2013-02-07 11:01:00,74.0,61.0,30.06,SE,139,9.0,13.0,65,0.48,,,-99.99,,2013-02-07 16:01:00,
2013-02-07 11:11:00,74.0,61.0,30.06,SE,139,9.0,13.0,65,0.48,,,-99.99,,2013-02-07 16:11:00,
2013-02-07 11:22:00,74.0,61.0,30.05,SSE,149,9.0,14.0,63,0.48,,,-99.99,,2013-02-07 16:22:00,
2013-02-07 11:32:00,75.0,61.0,30.06,South,186,10.0,16.0,62,0.48,,,-99.99,,2013-02-07 16:32:00,
2013-02-07 11:42:00,75.0,61.0,30.06,South,186,10.0,16.0,62,0.48,,,-99.99,,2013-02-07 16:42:00,
2013-02-07 11:52:00,76.0,62.0,30.04,SE,143,9.0,14.0,62,0.48,,,-99.99,,2013-02-07 16:52:00,
2013-02-07 12:01:00,75.0,61.0,30.02,South,186,10.0,15.0,62,0.48,,,-99.99,,2013-02-07 17:01:00,
2013-02-07 12:11:00,75.0,60.0,30.02,SSE,162,11.0,16.0,60,0.48,,,-99.99,,2013-02-07 17:11:00,
2013-02-07 12:21:00,75.0,60.0,30.02,SSE,162,11.0,16.0,60,0.48,,,-99.99,,2013-02-07 17:21:00,
2013-02-07 12:32:00,77.0,61.0,30.01,SSE,162,11.0,18.0,58,0.48,,,-99.99,,2013-02-07 17:32:00,
2013-02-07 12:43:00,77.0,61.0,30.01,SSE,162,11.0,18.0,58,0.48,,,-99.99,,2013-02-07 17:43:00,
2013-02-07 12:52:00,78.0,60.0,30.00,South,187,11.0,17.0,54,0.48,,,-99.99,,2013-02-07 17:52:00,
2013-02-07 13:02:00,79.0,60.0,29.99,South,172,10.0,16.0,53,0.48,,,-99.99,,2013-02-07 18:02:00,
2013-02-07 13:11:00,79.0,60.0,29.99,South,172,10.0,16.0,53,0.48,,,-99.99,,2013-02-07 18:11:00,
2013-02-07 13:23:00,78.0,60.0,29.98,South,191,10.0,15.0,54,0.48,,,-99.99,,2013-02-07 18:23:00,
2013-02-07 13:32:00,78.0,59.0,29.98,SSE,167,10.0,17.0,52,0.48,,,-99.99,,2013-02-07 18:32:00,
2013-02-07 13:42:00,78.0,59.0,29.98,SSE,167,10.0,17.0,52,0.48,,,-99.99,,2013-02-07 18:42:00,
2013-02-07 13:52:00,78.0,59.0,29.97,South,187,10.0,14.0,52,0.48,,,-99.99,,2013-02-07 18:52:00,
2013-02-07 14:01:00,79.0,59.0,29.96,South,169,11.0,17.0,50,0.48,,,-99.99,,2013-02-07 19:01:00,
2013-02-07 14:11:00,80.0,59.0,29.96,South,172,10.0,15.0,49,0.48,,,-99.99,,2013-02-07 19:11:00,
2013-02-07 14:22:00,80.0,59.0,29.96,South,172,10.0,15.0,49,0.48,,,-99.99,,2013-02-07 19:22:00,
2013-02-07 14:32:00,79.0,59.0,29.94,SE,145,10.0,17.0,50,0.48,,,-99.99,,2013-02-07 19:32:00,
2013-02-07 14:42:00,79.0,59.0,29.94,SE,145,10.0,17.0,50,0.48,,,-99.99,,2013-02-07 19:42:00,
2013-02-07 14:52:00,79.0,58.0,29.95,SSE,160,11.0,17.0,49,0.48,,,-99.99,,2013-02-07 19:52:00,
2013-02-07 15:01:00,79.0,59.0,29.94,SSE,162,9.0,15.0,51,0.48,,,-99.99,,2013-02-07 20:01:00,
2013-02-07 15:11:00,79.0,59.0,29.94,SSE,162,9.0,15.0,51,0.48,,,-99.99,,2013-02-07 20:11:00,
2013-02-07 15:22:00,80.0,60.0,29.92,SSE,166,11.0,17.0,50,0.48,,,-99.99,,2013-02-07 20:22:00,
2013-02-07 15:32:00,80.0,59.0,29.91,South,169,11.0,17.0,49,0.48,,,-99.99,,2013-02-07 20:32:00,
2013-02-07 15:42:00,80.0,59.0,29.91,South,169,11.0,17.0,49,0.48,,,-99.99,,2013-02-07 20:42:00,
2013-02-07 15:52:00,79.0,58.0,29.91,SSE,162,10.0,14.0,49,0.48,,,-99.99,,2013-02-07 20:52:00,
2013-02-07 16:02:00,80.0,59.0,29.90,South,172,10.0,14.0,48,0.48,,,-99.99,,2013-02-07 21:02:00,
2013-02-07 16:11:00,80.0,59.0,29.90,South,172,10.0,14.0,48,0.48,,,-99.99,,2013-02-07 21:11:00,
2013-02-07 16:21:00,80.0,58.0,29.91,SSE,150,10.0,17.0,47,0.48,,,-99.99,,2013-02-07 21:21:00,
2013-02-07 16:32:00,80.0,58.0,29.90,SSE,163,8.0,14.0,47,0.48,,,-99.99,,2013-02-07 21:32:00,
2013-02-07 16:42:00,80.0,58.0,29.90,SSE,163,8.0,14.0,47,0.48,,,-99.99,,2013-02-07 21:42:00,
2013-02-07 16:52:00,80.0,57.0,29.91,SSW,205,11.0,15.0,46,0.48,,,-99.99,,2013-02-07 21:52:00,
2013-02-07 17:02:00,80.0,57.0,29.91,SSW,193,9.0,14.0,45,0.48,,,-99.99,,2013-02-07 22:02:00,
2013-02-07 17:11:00,80.0,58.0,29.91,SSW,201,9.0,14.0,47,0.48,,,-99.99,,2013-02-07 22:11:00,
2013-02-07 17:21:00,80.0,58.0,29.91,SSW,201,9.0,14.0,47,0.48,,,-99.99,,2013-02-07 22:21:00,
2013-02-07 17:32:00,80.0,57.0,29.92,SSW,208,11.0,16.0,45,0.48,,,-99.99,,2013-02-07 22:32:00,
2013-02-07 17:42:00,80.0,57.0,29.92,SSW,208,11.0,16.0,45,0.48,,,-99.99,,2013-02-07 22:42:00,
2013-02-07 17:52:00,78.0,58.0,29.91,SSW,195,9.0,12.0,50,0.48,,,-99.99,,2013-02-07 22:52:00,
2013-02-07 18:01:00,78.0,57.0,29.90,WSW,239,11.0,17.0,49,0.48,,,-99.99,,2013-02-07 23:01:00,
2013-02-07 18:11:00,78.0,57.0,29.90,WSW,239,11.0,17.0,49,0.48,,,-99.99,,2013-02-07 23:11:00,
2013-02-07 18:22:00,77.0,58.0,29.91,SSW,205,12.0,19.0,52,0.48,,,-99.99,,2013-02-07 23:22:00,
2013-02-07 18:32:00,76.0,57.0,29.90,SW,229,13.0,22.0,51,0.48,,,-99.99,,2013-02-07 23:32:00,
2013-02-07 18:42:00,76.0,57.0,29.90,SW,229,13.0,22.0,51,0.48,,,-99.99,,2013-02-07 23:42:00,
2013-02-07 18:52:00,76.0,55.0,29.92,WSW,248,13.0,21.0,48,0.48,,,-99.99,,2013-02-07 23:52:00,
2013-02-07 19:02:00,75.0,56.0,29.91,WSW,238,11.0,19.0,51,0.48,,,-99.99,,2013-02-08 00:02:00,
2013-02-07 19:11:00,75.0,56.0,29.91,WSW,238,11.0,19.0,51,0.48,,,-99.99,,2013-02-08 00:11:00,
2013-02-07 19:22:00,75.0,58.0,29.93,SW,235,9.0,13.0,55,0.48,,,-99.99,,2013-02-08 00:22:00,
2013-02-07 19:32:00,75.0,58.0,29.93,SW,226,12.0,20.0,56,0.48,,,-99.99,,2013-02-08 00:32:00,
2013-02-07 19:42:00,75.0,58.0,29.93,SW,226,12.0,20.0,56,0.48,,,-99.99,,2013-02-08 00:42:00,
2013-02-07 19:52:00,74.0,59.0,29.93,SW,226,13.0,21.0,59,0.48,,,-99.99,,2013-02-08 00:52:00,
2013-02-07 20:01:00,74.0,59.0,29.92,SSW,200,12.0,20.0,60,0.48,,,-99.99,,2013-02-08 01:01:00,
2013-02-07 20:11:00,74.0,59.0,29.92,SSW,200,12.0,20.0,60,0.48,,,-99.99,,2013-02-08 01:11:00,
2013-02-07 20:21:00,73.0,61.0,29.91,SW,217,13.0,20.0,65,0.48,,,-99.99,,2013-02-08 01:21:00,
2013-02-07 20:32:00,72.0,60.0,29.91,SSW,203,14.0,18.0,67,0.48,,,-99.99,,2013-02-08 01:32:00,
2013-02-07 20:42:00,72.0,60.0,29.91,SSW,203,14.0,18.0,67,0.48,,,-99.99,,2013-02-08 01:42:00,
2013-02-07 20:52:00,72.0,61.0,29.92,SSW,193,8.0,15.0,69,0.48,,,-99.99,,2013-02-08 01:52:00,
2013-02-07 21:01:00,72.0,61.0,29.93,SW,214,8.0,13.0,69,0.48,,,-99.99,,2013-02-08 02:01:00,
2013-02-07 21:11:00,72.0,61.0,29.93,SW,214,8.0,13.0,69,0.48,,,-99.99,,2013-02-08 02:11:00,
2013-02-07 21:21:00,72.0,62.0,29.93,WSW,245,10.0,16.0,70,0.48,,,-99.99,,2013-02-08 02:21:00,
2013-02-07 21:32:00,71.0,61.0,29.92,SSW,210,10.0,14.0,71,0.48,,,-99.99,,2013-02-08 02:32:00,
2013-02-07 21:42:00,71.0,61.0,29.92,SSW,210,10.0,14.0,71,0.48,,,-99.99,,2013-02-08 02:42:00,
2013-02-07 21:52:00,71.0,62.0,29.91,SSW,207,9.0,14.0,72,0.48,,,-99.99,,2013-02-08 02:52:00,
2013-02-07 22:02:00,70.0,61.0,29.91,SW,224,10.0,14.0,73,0.48,,,-99.99,,2013-02-08 03:02:00,
2013-02-07 22:12:00,70.0,61.0,29.91,SW,224,10.0,14.0,73,0.48,,,-99.99,,2013-02-08 03:12:00,
2013-02-07 22:22:00,70.0,61.0,29.90,SSW,200,10.0,16.0,73,0.48,,,-99.99,,2013-02-08 03:22:00,
2013-02-07 22:32:00,70.0,61.0,29.91,SW,231,10.0,15.0,74,0.48,,,-99.99,,2013-02-08 03:32:00,
2013-02-07 22:42:00,70.0,61.0,29.91,SW,231,10.0,15.0,74,0.48,,,-99.99,,2013-02-08 03:42:00,
2013-02-07 22:52:00,70.0,62.0,29.91,SW,218,11.0,15.0,75,0.48,,,-99.99,,2013-02-08 03:52:00,
2013-02-07 23:02:00,69.0,61.0,29.90,SW,233,9.0,14.0,75,0.48,,,-99.99,,2013-02-08 04:02:00,
2013-02-07 23:11:00,69.0,61.0,29.90,SW,233,9.0,14.0,75,0.48,,,-99.99,,2013-02-08 04:11:00,
2013-02-07 23:21:00,69.0,61.0,29.91,SW,214,10.0,14.0,76,0.48,,,-99.99,,2013-02-08 04:21:00,
2013-02-07 23:32:00,69.0,61.0,29.90,SW,224,12.0,20.0,76,0.48,,,-99.99,,2013-02-08 04:32:00,
2013-02-07 23:42:00,69.0,61.0,29.90,SW,224,12.0,20.0,76,0.48,,,-99.99,,2013-02-08 04:42:00,
2013-02-07 23:52:00,69.0,62.0,29.91,SW,224,10.0,16.0,78,0.48,,,-99.99,,2013-02-08 04:52:00,